Weather in Baklushi

Russia / Novosibirsk Oblast     54°22′38″N   79°07′14″E
temp.,
°C
wind,
m/s
gust,
m/s
humid.,
%
clouds,
%
prec.,
mm/h
press.,
hPa
HPBL,
m
1 march, mon
mon101:00−10ese61195100 0.6 1015374
04:00−8e5995100 1.7 1010319
07:00−8ene479599 2.9 1008177
10:00−7ne3596100 0.2 1007171
13:00−5ne3396100 0.6 1007211
16:00−4ne3596100 0.9 1006254
19:00−5nne4696100 2.1 1007239
22:00−8nne4696100 0.7 1008229
2 march, tue
tue201:00−12n339694 0.9 101145
04:00−14nnw339690 0.1 101256
07:00−18wnw239889 0.1 101522
10:00−18wnw239897 0.0 101639
13:00−15wsw239292 0.0 1017242
16:00−13sw2390100 0.0 1016323
19:00−14wsw1296100 0.1 101621
22:00−15sw1197100 0.1 101620
3 march, wed
wed301:00−16sw129695 0.3 101520
04:00−16wsw229777 0.1 101522
07:00−17ssw129785 0.3 101620
10:00−15ssw249681 0.1 1016145
13:00−12sw359281 0.1 1018378
16:00−10ssw5791100 0.1 1018519
19:00−14ssw51094100 0.1 1019365
22:00−15s6129498 0.0 1019336
4 march, thu
thu401:00−12s7139399 0.2 1018433
04:00−10ssw71394100 0.5 1016502
07:00−9ssw71393100 0.9 1016491
10:00−8ssw81492100 0.2 1014501
13:00−5ssw91494100 0.6 1013665
16:00−3ssw91494100 0.7 1012773
19:00−3ssw91693100 1.1 1011832
22:00−3ssw91694100 0.4 1010780
5 march, fri
fri501:00−3ssw9169299 0.6 1009632
04:00−4s81495100 0.6 1007504
07:00−5ssw71295100 1.5 1006427
10:00−3sw71295100 0.7 1006585
13:00−3w81287100 1.1 1009811
16:00−6wsw7128249 0.0 1015706
19:00−8sw7148743 0.0 1017460
22:00−7ssw91786100 0.0 1016781